Tracking 30685 objects as of 18-Jun-2025
HD Live streaming from Space Station
objects crossing your sky now

STARLINK-5893

Track STARLINK-5893 now!
10-day predictions
STARLINK-5893 is classified as:


NORAD ID: 55952
Int'l Code: 2023-037AQ
Perigee: 576.5 km
Apogee: 581.9 km
Inclination: 70.0 °
Period: 96.1 minutes
Semi major axis: 6950 km
RCS: Unknown
Launch date: March 17, 2023
Source: United States (US)
Launch site: AIR FORCE WESTERN TEST RANGE (AFWTR)
Your satellite tracking list
Your tracking list is empty




NASA's NSSDC Master Catalog

Two Line Element Set (TLE):
1 55952U 23037AQ  25169.20870175  .00000550  00000-0  53857-4 0  9996
2 55952  69.9988 211.4179 0003913 267.8512  92.2199 14.98328467125191
Source of the keplerian elements: AFSPC